Tracking 27405 objects as of 1-Jun-2023
HD Live streaming from Space Station
objects crossing your sky now

STARLINK-5115

Track STARLINK-5115 now!
10-day predictions
STARLINK-5115 is classified as:


NORAD ID: 53989
Int'l Code: 2022-125AB
Perigee: 546.1 km
Apogee: 547.7 km
Inclination: 53.2 °
Period: 95.4 minutes
Semi major axis: 6917 km
RCS: Unknown
Launch date: October 5, 2022
Source: United States (US)
Launch site: AIR FORCE WESTERN TEST RANGE (AFWTR)
Your satellite tracking list
Your tracking list is empty




NASA's NSSDC Master Catalog

Two Line Element Set (TLE):
1 53989U 22125AB  23152.08573049  .00000618  00000-0  56898-4 0  9990
2 53989  53.2179  79.8869 0001138  89.7137 270.3985 15.08833227 36662
Source of the keplerian elements: AFSPC